Time,TemperatureF,DewpointF,PressureIn,WindDirection,WindDirectionDegrees,WindSpeedMPH,WindSpeedGustMPH,Humidity,HourlyPrecipIn,Conditions,Clouds,dailyrainin,SoftwareType,DateUTC
2013-05-06 00:05:00,48.6,42.0,30.17,SE,139,0.0,1.0,78,0.00,,,0.00,weatherlink.com 1.10,2013-05-06 04:05:00,
2013-05-06 00:20:00,48.2,42.0,30.16,NNW,338,0.0,3.0,80,0.00,,,0.00,weatherlink.com 1.10,2013-05-06 04:20:00,
2013-05-06 00:35:00,48.5,42.0,30.16,ENE,65,0.0,2.0,79,0.00,,,0.00,weatherlink.com 1.10,2013-05-06 04:35:00,
2013-05-06 00:50:00,47.9,42.0,30.16,NNW,328,0.0,1.0,80,0.00,,,0.00,weatherlink.com 1.10,2013-05-06 04:50:00,
2013-05-06 01:05:00,47.8,42.0,30.15,NNW,331,1.0,1.0,80,0.00,,,0.00,weatherlink.com 1.10,2013-05-06 05:05:00,
2013-05-06 01:21:00,47.4,42.0,30.14,North,358,0.0,3.0,81,0.00,,,0.00,weatherlink.com 1.10,2013-05-06 05:21:00,
2013-05-06 01:36:00,47.3,42.0,30.15,North,1,1.0,2.0,82,0.00,,,0.00,weatherlink.com 1.10,2013-05-06 05:36:00,
2013-05-06 01:51:00,47.3,42.0,30.14,NW,320,0.0,1.0,82,0.00,,,0.00,weatherlink.com 1.10,2013-05-06 05:51:00,
2013-05-06 02:06:00,47.3,42.0,30.14,NNW,348,0.0,1.0,83,0.00,,,0.00,weatherlink.com 1.10,2013-05-06 06:06:00,
2013-05-06 02:21:00,48.0,43.0,30.14,NNW,332,1.0,1.0,82,0.00,,,0.00,weatherlink.com 1.10,2013-05-06 06:21:00,
2013-05-06 02:36:00,48.5,43.0,30.14,NNW,336,0.0,1.0,81,0.00,,,0.00,weatherlink.com 1.10,2013-05-06 06:36:00,
2013-05-06 02:51:00,48.3,43.0,30.14,NNW,346,2.0,3.0,81,0.00,,,0.00,weatherlink.com 1.10,2013-05-06 06:51:00,
2013-05-06 03:06:00,48.2,43.0,30.13,NW,323,1.0,3.0,81,0.00,,,0.00,weatherlink.com 1.10,2013-05-06 07:06:00,
2013-05-06 03:21:00,48.0,42.0,30.14,ESE,113,0.0,3.0,80,0.00,,,0.00,weatherlink.com 1.10,2013-05-06 07:21:00,
2013-05-06 03:36:00,48.1,42.0,30.14,NW,321,2.0,3.0,79,0.00,,,0.00,weatherlink.com 1.10,2013-05-06 07:36:00,
2013-05-06 03:51:00,48.1,42.0,30.13,NNW,330,1.0,2.0,79,0.00,,,0.00,weatherlink.com 1.10,2013-05-06 07:51:00,
2013-05-06 04:06:00,48.1,42.0,30.14,NNW,329,2.0,3.0,79,0.00,,,0.00,weatherlink.com 1.10,2013-05-06 08:06:00,
2013-05-06 04:21:00,47.7,42.0,30.14,NNW,343,0.0,3.0,81,0.00,,,0.00,weatherlink.com 1.10,2013-05-06 08:21:00,
2013-05-06 04:36:00,47.8,42.0,30.14,WNW,298,0.0,3.0,81,0.00,,,0.00,weatherlink.com 1.10,2013-05-06 08:36:00,
2013-05-06 04:51:00,47.9,42.0,30.14,NNW,333,1.0,4.0,81,0.00,,,0.00,weatherlink.com 1.10,2013-05-06 08:51:00,
2013-05-06 05:06:00,47.3,42.0,30.14,North,360,1.0,4.0,82,0.00,,,0.00,weatherlink.com 1.10,2013-05-06 09:06:00,
2013-05-06 05:21:00,47.2,42.0,30.14,NNW,339,1.0,4.0,82,0.00,,,0.00,weatherlink.com 1.10,2013-05-06 09:21:00,
2013-05-06 05:36:00,47.3,42.0,30.14,NW,305,1.0,6.0,83,0.00,,,0.00,weatherlink.com 1.10,2013-05-06 09:36:00,
2013-05-06 05:51:00,47.4,43.0,30.15,NW,304,0.0,5.0,85,0.00,,,0.00,weatherlink.com 1.10,2013-05-06 09:51:00,
2013-05-06 06:06:00,47.6,43.0,30.16,NNE,16,0.0,2.0,85,0.00,,,0.00,weatherlink.com 1.10,2013-05-06 10:06:00,
2013-05-06 06:21:00,48.1,44.0,30.16,NNW,327,0.0,1.0,84,0.00,,,0.00,weatherlink.com 1.10,2013-05-06 10:21:00,
2013-05-06 06:36:00,48.5,44.0,30.16,SSE,147,0.0,2.0,83,0.00,,,0.00,weatherlink.com 1.10,2013-05-06 10:36:00,
2013-05-06 06:51:00,48.7,44.0,30.16,NNW,332,0.0,2.0,83,0.00,,,0.00,weatherlink.com 1.10,2013-05-06 10:51:00,
2013-05-06 07:06:00,48.8,44.0,30.17,NNW,345,2.0,4.0,83,0.00,,,0.00,weatherlink.com 1.10,2013-05-06 11:06:00,
2013-05-06 07:21:00,49.4,44.0,30.17,ESE,116,0.0,4.0,81,0.00,,,0.00,weatherlink.com 1.10,2013-05-06 11:21:00,
2013-05-06 07:36:00,50.0,44.0,30.17,ESE,113,1.0,2.0,79,0.00,,,0.00,weatherlink.com 1.10,2013-05-06 11:36:00,
2013-05-06 07:51:00,50.4,44.0,30.17,SE,127,1.0,5.0,79,0.00,,,0.00,weatherlink.com 1.10,2013-05-06 11:51:00,
2013-05-06 08:06:00,50.8,44.0,30.17,WNW,284,0.0,7.0,77,0.00,,,0.00,weatherlink.com 1.10,2013-05-06 12:06:00,
2013-05-06 08:21:00,51.3,44.0,30.18,North,358,2.0,6.0,77,0.00,,,0.00,weatherlink.com 1.10,2013-05-06 12:21:00,
2013-05-06 08:36:00,51.6,45.0,30.18,NW,308,1.0,6.0,77,0.00,,,0.00,weatherlink.com 1.10,2013-05-06 12:36:00,
2013-05-06 08:51:00,52.3,45.0,30.19,NW,323,3.0,6.0,76,0.00,,,0.00,weatherlink.com 1.10,2013-05-06 12:51:00,
2013-05-06 09:06:00,52.1,45.0,30.19,North,4,3.0,5.0,77,0.00,,,0.00,weatherlink.com 1.10,2013-05-06 13:06:00,
2013-05-06 09:21:00,52.4,45.0,30.19,NNE,13,3.0,5.0,76,0.00,,,0.00,weatherlink.com 1.10,2013-05-06 13:21:00,
2013-05-06 09:36:00,54.0,46.0,30.19,NNW,335,2.0,5.0,73,0.00,,,0.00,weatherlink.com 1.10,2013-05-06 13:36:00,
2013-05-06 09:51:00,54.3,45.0,30.19,ESE,108,1.0,6.0,72,0.00,,,0.00,weatherlink.com 1.10,2013-05-06 13:51:00,
2013-05-06 10:06:00,54.3,45.0,30.18,WNW,293,2.0,5.0,72,0.00,,,0.00,weatherlink.com 1.10,2013-05-06 14:06:00,
2013-05-06 10:21:00,54.9,45.0,30.18,NNW,339,0.0,7.0,70,0.00,,,0.00,weatherlink.com 1.10,2013-05-06 14:21:00,
2013-05-06 10:36:00,55.3,46.0,30.19,ESE,115,2.0,8.0,71,0.00,,,0.00,weatherlink.com 1.10,2013-05-06 14:36:00,
2013-05-06 10:51:00,56.3,46.0,30.18,NW,326,7.0,8.0,68,0.00,,,0.00,weatherlink.com 1.10,2013-05-06 14:51:00,
2013-05-06 11:07:00,57.4,46.0,30.18,East,91,1.0,5.0,66,0.00,,,0.00,weatherlink.com 1.10,2013-05-06 15:07:00,
2013-05-06 11:22:00,58.4,47.0,30.18,SE,130,1.0,4.0,65,0.00,,,0.00,weatherlink.com 1.10,2013-05-06 15:22:00,
2013-05-06 11:37:00,59.2,46.0,30.17,NNW,343,3.0,8.0,62,0.00,,,0.00,weatherlink.com 1.10,2013-05-06 15:37:00,
2013-05-06 11:52:00,60.7,47.0,30.17,NW,318,5.0,5.0,60,0.00,,,0.00,weatherlink.com 1.10,2013-05-06 15:52:00,
2013-05-06 12:07:00,61.5,47.0,30.16,WNW,299,0.0,3.0,59,0.00,,,0.00,weatherlink.com 1.10,2013-05-06 16:07:00,
2013-05-06 12:22:00,63.6,47.0,30.15,NW,319,0.0,3.0,55,0.00,,,0.00,weatherlink.com 1.10,2013-05-06 16:22:00,
2013-05-06 12:37:00,64.2,47.0,30.15,NW,315,0.0,3.0,54,0.00,,,0.00,weatherlink.com 1.10,2013-05-06 16:37:00,
2013-05-06 12:52:00,63.3,47.0,30.14,West,266,1.0,5.0,55,0.00,,,0.00,weatherlink.com 1.10,2013-05-06 16:52:00,
2013-05-06 13:07:00,64.6,47.0,30.14,SSW,203,3.0,5.0,53,0.00,,,0.00,weatherlink.com 1.10,2013-05-06 17:07:00,
2013-05-06 13:22:00,64.7,48.0,30.13,SW,232,0.0,4.0,55,0.00,,,0.00,weatherlink.com 1.10,2013-05-06 17:22:00,
2013-05-06 13:37:00,66.8,49.0,30.13,SSE,155,0.0,3.0,53,0.00,,,0.00,weatherlink.com 1.10,2013-05-06 17:37:00,
2013-05-06 13:52:00,66.9,50.0,30.13,WSW,245,1.0,4.0,55,0.00,,,0.00,weatherlink.com 1.10,2013-05-06 17:52:00,
2013-05-06 14:07:00,67.1,49.0,30.12,SE,134,2.0,7.0,53,0.00,,,0.00,weatherlink.com 1.10,2013-05-06 18:07:00,
2013-05-06 14:22:00,66.9,50.0,30.12,South,181,1.0,3.0,54,0.00,,,0.00,weatherlink.com 1.10,2013-05-06 18:22:00,
2013-05-06 14:37:00,67.4,50.0,30.11,NNW,347,2.0,3.0,53,0.00,,,0.00,weatherlink.com 1.10,2013-05-06 18:37:00,
2013-05-06 14:52:00,68.4,50.0,30.11,SSE,152,1.0,5.0,53,0.00,,,0.00,weatherlink.com 1.10,2013-05-06 18:52:00,
2013-05-06 15:07:00,69.3,51.0,30.10,South,180,2.0,4.0,52,0.00,,,0.00,weatherlink.com 1.10,2013-05-06 19:07:00,
2013-05-06 15:22:00,68.8,50.0,30.10,SE,134,2.0,4.0,52,0.00,,,0.00,weatherlink.com 1.10,2013-05-06 19:22:00,
2013-05-06 15:37:00,68.7,50.0,30.09,SW,234,6.0,9.0,52,0.00,,,0.00,weatherlink.com 1.10,2013-05-06 19:37:00,
2013-05-06 15:52:00,67.3,50.0,30.09,WSW,250,3.0,5.0,54,0.00,,,0.00,weatherlink.com 1.10,2013-05-06 19:52:00,
2013-05-06 16:07:00,67.4,51.0,30.09,SE,131,2.0,6.0,55,0.00,,,0.00,weatherlink.com 1.10,2013-05-06 20:07:00,
2013-05-06 16:22:00,66.3,50.0,30.09,SE,144,2.0,6.0,57,0.00,,,0.00,weatherlink.com 1.10,2013-05-06 20:22:00,
2013-05-06 16:37:00,65.2,49.0,30.08,SE,145,3.0,7.0,57,0.00,,,0.00,weatherlink.com 1.10,2013-05-06 20:37:00,
2013-05-06 16:52:00,65.2,49.0,30.08,SE,126,1.0,5.0,57,0.00,,,0.00,weatherlink.com 1.10,2013-05-06 20:52:00,
2013-05-06 17:08:00,64.3,49.0,30.08,West,274,2.0,8.0,58,0.00,,,0.00,weatherlink.com 1.10,2013-05-06 21:08:00,
2013-05-06 17:23:00,64.9,50.0,30.08,WSW,242,0.0,3.0,58,0.00,,,0.00,weatherlink.com 1.10,2013-05-06 21:23:00,
2013-05-06 17:38:00,65.8,49.0,30.08,SSE,167,0.0,4.0,56,0.00,,,0.00,weatherlink.com 1.10,2013-05-06 21:38:00,
2013-05-06 17:53:00,65.0,49.0,30.08,South,170,0.0,8.0,57,0.00,,,0.00,weatherlink.com 1.10,2013-05-06 21:53:00,
2013-05-06 18:08:00,63.8,49.0,30.08,SSW,203,2.0,5.0,59,0.00,,,0.00,weatherlink.com 1.10,2013-05-06 22:08:00,
2013-05-06 18:23:00,63.2,49.0,30.07,South,172,1.0,6.0,61,0.00,,,0.00,weatherlink.com 1.10,2013-05-06 22:23:00,
2013-05-06 18:38:00,62.1,49.0,30.08,ESE,118,1.0,4.0,63,0.00,,,0.00,weatherlink.com 1.10,2013-05-06 22:38:00,
2013-05-06 18:53:00,61.4,49.0,30.08,SE,139,0.0,4.0,64,0.00,,,0.00,weatherlink.com 1.10,2013-05-06 22:53:00,
2013-05-06 19:08:00,60.7,49.0,30.08,SE,132,1.0,4.0,66,0.00,,,0.00,weatherlink.com 1.10,2013-05-06 23:08:00,
2013-05-06 19:23:00,60.3,49.0,30.08,SW,222,1.0,4.0,66,0.00,,,0.00,weatherlink.com 1.10,2013-05-06 23:23:00,
2013-05-06 19:38:00,59.6,49.0,30.08,SSE,168,3.0,3.0,68,0.00,,,0.00,weatherlink.com 1.10,2013-05-06 23:38:00,
2013-05-06 19:53:00,59.2,49.0,30.08,South,169,2.0,4.0,68,0.00,,,0.00,weatherlink.com 1.10,2013-05-06 23:53:00,
2013-05-06 20:08:00,58.4,48.0,30.08,South,181,3.0,4.0,69,0.00,,,0.00,weatherlink.com 1.10,2013-05-07 00:08:00,
2013-05-06 20:23:00,57.8,48.0,30.09,SE,130,0.0,3.0,71,0.00,,,0.00,weatherlink.com 1.10,2013-05-07 00:23:00,
2013-05-06 20:38:00,58.8,49.0,30.09,ENE,74,1.0,3.0,70,0.00,,,0.00,weatherlink.com 1.10,2013-05-07 00:38:00,
2013-05-06 20:53:00,58.0,49.0,30.10,ESE,116,1.0,2.0,72,0.00,,,0.00,weatherlink.com 1.10,2013-05-07 00:53:00,
2013-05-06 21:08:00,57.2,49.0,30.10,WNW,284,0.0,3.0,73,0.00,,,0.00,weatherlink.com 1.10,2013-05-07 01:08:00,
2013-05-06 21:24:00,57.6,49.0,30.10,SSE,156,0.0,3.0,72,0.00,,,0.00,weatherlink.com 1.10,2013-05-07 01:24:00,
2013-05-06 21:38:00,56.7,48.0,30.11,South,190,1.0,2.0,73,0.00,,,0.00,weatherlink.com 1.10,2013-05-07 01:38:00,
2013-05-06 21:53:00,55.8,48.0,30.11,ESE,120,0.0,3.0,76,0.00,,,0.00,weatherlink.com 1.10,2013-05-07 01:53:00,
2013-05-06 22:08:00,57.0,48.0,30.10,SSE,156,0.0,2.0,73,0.00,,,0.00,weatherlink.com 1.10,2013-05-07 02:08:00,
2013-05-06 22:23:00,55.5,48.0,30.10,SE,141,0.0,2.0,76,0.00,,,0.00,weatherlink.com 1.10,2013-05-07 02:23:00,
2013-05-06 22:38:00,55.1,48.0,30.10,West,264,0.0,1.0,77,0.00,,,0.00,weatherlink.com 1.10,2013-05-07 02:38:00,
2013-05-06 22:53:00,54.8,48.0,30.09,West,264,0.0,0.0,77,0.00,,,0.00,weatherlink.com 1.10,2013-05-07 02:53:00,
2013-05-06 23:08:00,54.8,47.0,30.09,ESE,116,0.0,1.0,76,0.00,,,0.00,weatherlink.com 1.10,2013-05-07 03:08:00,
2013-05-06 23:23:00,54.5,47.0,30.09,ESE,116,0.0,0.0,76,0.00,,,0.00,weatherlink.com 1.10,2013-05-07 03:23:00,
2013-05-06 23:38:00,54.5,47.0,30.09,ESE,120,0.0,0.0,77,0.00,,,0.00,weatherlink.com 1.10,2013-05-07 03:38:00,
2013-05-06 23:53:00,54.4,47.0,30.09,ESE,121,0.0,0.0,77,0.00,,,0.00,weatherlink.com 1.10,2013-05-07 03:53:00,